This demonstration page uses our WeatherBlox Daily Observations layout. Learn more.

40.92945, -100.16068

Hourly Observations for March 27, 2015

Temp ( °F °C ) Dew Point ( °F °C ) Humidity (%) Winds ( mph kmh ) Pressure ( in mb ) Visibility ( mi km ) Precip ( " mm )
12:15 am 00:15 Cloudy 34 1 28 -2.2 79 79 NE 12 19 30.3 1026 10 16.0934 N/A
12:35 am 00:35 Cloudy 34 1 28 -2.5 78 78 NE 12 19 30.3 1026 10 16.0934 N/A
12:55 am 00:55 Cloudy 33 0.8 28 -2.5 79 79 NE 13 20 30.3 1026 10 16.0934 N/A
1:15 am 01:15 Cloudy 34 0.9 28 -2.5 78 78 NE 8 13 30.3 1026 10 16.0934 N/A
1:35 am 01:35 Cloudy 34 1 27 -2.6 77 77 NE 10 17 30.3 1026 10 16.0934 N/A
1:55 am 01:55 Cloudy 34 1 27 -2.7 77 77 NE 8 13 30.3 1026 10 16.0934 N/A
2:15 am 02:15 Cloudy 34 1 27 -2.7 77 77 NE 10 17 30.33 1027 10 16.0934 N/A
2:35 am 02:35 Cloudy 34 1 27 -2.8 76 76 ENE 9 15 30.33 1027 10 16.0934 N/A
2:55 am 02:55 Cloudy 33 0.8 27 -2.8 77 77 ENE 7 11 30.33 1027 10 16.0934 N/A
3:15 am 03:15 Cloudy 33 0.8 27 -2.8 77 77 ENE 6 9 30.33 1027 10 16.0934 N/A
3:35 am 03:35 Cloudy 33 0.8 27 -2.8 77 77 ENE 5 7 30.33 1027 10 16.0934 N/A
3:55 am 03:55 Cloudy 33 0.8 27 -3 76 76 NE 5 7 30.33 1027 10 16.0934 N/A
4:15 am 04:15 Cloudy 33 0.8 26 -3.1 75 75 Calm 30.33 1027 10 16.0934 N/A
4:35 am 04:35 Cloudy 33 0.8 26 -3.1 75 75 Calm 30.33 1027 10 16.0934 N/A
4:55 am 04:55 Cloudy 33 0.7 27 -3 77 77 Calm 30.33 1027 10 16.0934 N/A
5:15 am 05:15 Cloudy 33 0.8 27 -3 76 76 Calm 30.33 1027 10 16.0934 N/A
5:35 am 05:35 Cloudy 33 0.8 27 -3 76 76 Calm 30.33 1027 10 16.0934 N/A
5:55 am 05:55 Cloudy 33 0.8 27 -3 76 76 Calm 30.33 1027 10 16.0934 N/A
6:15 am 06:15 Cloudy 33 0.8 27 -3 76 76 Calm 30.33 1027 10 16.0934 N/A
6:35 am 06:35 Cloudy 33 0.8 27 -3 76 76 Calm 30.33 1027 10 16.0934 N/A
6:55 am 06:55 Cloudy 33 0.8 27 -3 76 76 Calm 30.33 1027 10 16.0934 N/A
7:15 am 07:15 Cloudy 33 0.8 27 -3 76 76 Calm 30.33 1027 10 16.0934 N/A
7:35 am 07:35 Cloudy 33 0.8 27 -2.8 77 77 Calm 30.33 1027 10 16.0934 N/A
7:55 am 07:55 Cloudy 34 0.9 27 -2.8 77 77 Calm 30.33 1027 10 16.0934 N/A
8:15 am 08:15 Cloudy 34 1 27 -3 75 75 ESE 5 7 30.33 1027 10 16.0934 N/A
8:35 am 08:35 Cloudy 34 1.2 26 -3.1 73 73 SSE 5 7 30.33 1027 10 16.0934 N/A
8:55 am 08:55 Cloudy 34 1.3 26 -3.4 71 71 SSE 6 9 30.33 1027 10 16.0934 N/A
9:15 am 09:15 Cloudy 34 1.3 25 -3.7 70 70 SSE 6 9 30.33 1027 10 16.0934 N/A
9:35 am 09:35 Cloudy 35 1.5 26 -3.2 71 71 S 7 11 30.33 1027 10 16.0934 N/A
9:55 am 09:55 Cloudy 35 1.7 26 -3.6 68 68 S 8 13 30.33 1027 10 16.0934 N/A
10:15 am 10:15 Cloudy 36 2.1 26 -3.6 66 66 S 8 13 30.3 1026 10 16.0934 N/A
10:35 am 10:35 Cloudy 36 2 26 -3.6 67 67 SSW 9 15 30.33 1027 10 16.0934 N/A
10:55 am 10:55 Cloudy 37 2.6 26 -3.4 65 65 SSW 9 15 30.27 1025 10 16.0934 N/A
11:15 am 11:15 Cloudy 37 3 27 -3 65 65 S 9 15 30.27 1025 10 16.0934 N/A
11:35 am 11:35 Cloudy 38 3.1 27 -2.8 66 66 S 9 15 30.27 1025 10 16.0934 N/A
11:55 am 11:55 Cloudy 39 4 28 -2.3 64 64 SSW 14 22 30.24 1024 10 16.0934 N/A
12:15 pm 12:15 Cloudy 40 4.5 29 -1.9 64 64 SSW 14 22 30.24 1024 10 16.0934 N/A
12:35 pm 12:35 Cloudy 41 5 29 -1.6 63 63 S 10 17 30.24 1024 10 16.0934 N/A
12:55 pm 12:55 Cloudy 42 5.7 29 -1.5 60 60 SSW 10 17 30.18 1022 10 16.0934 N/A
1:15 pm 13:15 Cloudy 43 6.1 30 -1.2 60 60 SSW 10 17 30.18 1022 10 16.0934 N/A
1:35 pm 13:35 Cloudy with Light Rain 42 5.7 30 -1 62 62 SSW 13 20 30.18 1022 10 16.0934 N/A
1:55 pm 13:55 Cloudy with Light Drizzle 42 5.6 33 0.3 69 69 SW 13 20 30.15 1021 10 16.0934 N/A
2:15 pm 14:15 Cloudy 44 6.7 32 0 63 63 S 14 22 30.15 1021 10 16.0934 N/A
2:35 pm 14:35 Partly Cloudy 47 8.3 32 0 56 56 SSW 17 28 30.09 1019 10 16.0934 N/A
2:55 pm 14:55 Partly Cloudy 48 9.1 32 0.1 54 54 SSW 15 24 30.06 1018 10 16.0934 N/A
3:15 pm 15:15 Mostly Cloudy 49 9.5 33 0.5 54 54 SW 16 26 30.06 1018 10 16.0934 N/A
3:35 pm 15:35 Mostly Cloudy 51 10.6 34 1 52 52 SSW 16 26 30.03 1017 10 16.0934 N/A
3:55 pm 15:55 Mostly Cloudy 53 11.5 34 1.1 49 49 SSW 15 24 30.03 1017 10 16.0934 N/A
4:15 pm 16:15 Cloudy 53 11.6 34 1.2 49 49 SW 12 19 30.03 1017 10 16.0934 N/A
4:35 pm 16:35 Cloudy 55 12.6 35 1.6 47 47 SSW 16 26 30 1016 10 16.0934 N/A
4:55 pm 16:55 Cloudy 54 12.4 35 1.7 48 48 SSW 12 19 30 1016 10 16.0934 N/A
5:15 pm 17:15 Cloudy 55 12.5 35 1.7 48 48 S 13 20 29.94 1014 10 16.0934 N/A
5:35 pm 17:35 Cloudy 55 12.8 36 2 48 48 SSE 13 20 29.94 1014 10 16.0934 N/A
5:55 pm 17:55 Cloudy 55 12.7 36 2.1 49 49 S 13 20 29.94 1014 10 16.0934 N/A
6:15 pm 18:15 Cloudy 55 13 36 2.1 48 48 SSE 13 20 29.94 1014 10 16.0934 N/A
6:35 pm 18:35 Mostly Cloudy 55 12.8 36 2.1 48 48 S 12 19 29.94 1014 10 16.0934 N/A
6:55 pm 18:55 Partly Cloudy 55 12.8 36 2.2 49 49 S 10 17 29.94 1014 10 16.0934 N/A
7:15 pm 19:15 Partly Cloudy 55 12.5 36 2.2 50 50 SSE 10 17 29.94 1014 10 16.0934 N/A
7:35 pm 19:35 Sunny 54 12.1 36 2.3 51 51 SSE 8 13 29.97 1015 10 16.0934 N/A
7:55 pm 19:55 Partly Cloudy 53 11.9 36 2.2 52 52 SSE 10 17 29.97 1015 10 16.0934 N/A
8:15 pm 20:15 Partly Cloudy 51 10.5 36 2 56 56 SSE 8 13 29.97 1015 10 16.0934 N/A
8:35 pm 20:35 Clear 50 10.1 35 1.7 56 56 S 8 13 29.97 1015 10 16.0934 N/A
8:55 pm 20:55 Clear 48 8.9 35 1.7 61 61 SSE 8 13 30 1016 10 16.0934 N/A
9:15 pm 21:15 Clear 49 9.4 35 1.8 59 59 S 10 17 30 1016 10 16.0934 N/A
9:35 pm 21:35 Clear 48 8.8 35 1.6 61 61 S 7 11 30 1016 10 16.0934 N/A
9:55 pm 21:55 Clear 46 7.8 35 1.4 64 64 Calm 30 1016 10 16.0934 N/A
10:15 pm 22:15 Clear 46 7.9 34 1.2 63 63 S 7 11 30 1016 10 16.0934 N/A
10:35 pm 22:35 Clear 45 7.2 34 1.2 66 66 S 6 9 30 1016 10 16.0934 N/A
10:55 pm 22:55 Clear 47 8.6 35 1.5 61 61 SE 3 6 30 1016 10 16.0934 N/A
11:15 pm 23:15 Clear 42 5.6 33 0.3 69 69 Calm 30.03 1017 10 16.0934 N/A
11:35 pm 23:35 Clear 44 6.8 33 0.5 65 65 Calm 30 1016 10 16.0934 N/A
11:55 pm 23:55 Partly Cloudy 37 2.5 30 -0.9 79 79 Calm 30.06 1018 10 16.0934 N/A

Powered by AerisWeather